HB9IMQ-13 Weather Reports


time (UTC)temp
C
wind
direction
speed
KPH
gust
KPH
rain 1hr
cm
rain 24hr
cm
rain mn
cm
humidity
%
barometer
mb
20260503022025 11 205 0.0 0.0 0.00 0.00 0.00 83 1015.3
20260503021046 11 205 0.0 0.0 0.00 0.00 0.00 82 1015.3
20260503015021 11 205 0.0 0.0 0.00 0.00 0.00 83 1015.4
20260503014042 11 205 0.0 0.0 0.00 0.00 0.00 83 1015.3
20260503013016 11 205 0.0 0.0 0.00 0.00 0.00 83 1015.3
20260503012030 11 205 0.0 0.0 0.00 0.00 0.00 84 1015.3
20260503011024 11 205 0.0 0.0 0.00 0.00 0.00 82 1015.4
20260503010023 11 205 0.0 0.0 0.00 0.00 0.00 82 1015.4
20260503005021 12 205 0.0 0.0 0.00 0.00 0.00 82 1015.5
20260503004032 12 205 0.0 0.0 0.00 0.00 0.00 81 1015.5
20260503003035 12 205 0.0 0.0 0.00 0.00 0.00 81 1015.6
20260503002026 12 223 0.0 0.0 0.00 0.00 0.00 81 1015.7
20260503001025 12 223 0.0 0.0 0.00 0.00 0.00 81 1015.8
20260503000025 12 227 0.0 0.0 0.00 0.00 0.00 80 1015.8
20260502235024 12 227 0.0 0.0 0.00 0.00 0.00 79 1015.8
20260502234025 13 227 0.0 0.0 0.00 0.00 0.00 78 1015.8
20260502233020 13 227 0.0 0.0 0.00 0.00 0.00 78 1015.8
20260502232021 13 226 0.0 0.0 0.00 0.00 0.00 77 1015.8
20260502231017 13 226 0.0 0.0 0.00 0.00 0.00 76 1015.8
20260502230034 14 226 0.0 0.0 0.00 0.00 0.00 75 1015.8
20260502225036 14 226 0.0 0.0 0.00 0.00 0.00 74 1015.8
20260502224025 15 226 0.0 0.0 0.00 0.00 0.00 74 1015.8
20260502223023 15 226 0.0 0.0 0.00 0.00 0.00 74 1015.8
20260502222018 15 281 0.0 0.0 0.00 0.00 0.00 74 1015.8
20260502221018 15 281 0.0 0.0 0.00 0.00 0.00 74 1015.8
20260502220028 15 281 0.0 1.6 0.00 0.00 0.00 74 1015.8
20260502215049 15 281 0.0 1.6 0.00 0.00 0.00 74 1015.8
20260502214027 15 281 0.0 3.2 0.00 0.00 0.00 73 1015.7
20260502213049 15 281 0.0 1.6 0.00 0.00 0.00 73 1015.6
20260502212019 16 281 0.0 3.2 0.00 0.00 0.00 72 1015.6
20260502211020 16 281 0.0 1.6 0.00 0.00 0.00 70 1015.7
20260502210022 16 281 0.0 1.6 0.00 0.00 0.00 69 1015.6
20260502205037 16 281 0.0 3.2 0.00 0.00 0.00 69 1015.6
20260502204036 16 282 1.6 3.2 0.00 0.00 0.00 68 1015.7
20260502203035 17 282 0.0 1.6 0.00 0.00 0.00 67 1015.7
20260502202037 17 282 0.0 1.6 0.00 0.00 0.00 66 1015.6
20260502201034 17 282 0.0 1.6 0.00 0.00 0.00 64 1015.6
20260502200027 17 282 0.0 1.6 0.00 0.00 0.00 64 1015.7
20260502195030 18 282 0.0 3.2 0.00 0.00 0.00 63 1015.6
20260502194027 18 282 0.0 1.6 0.00 0.00 0.00 62 1015.7
20260502193026 18 282 0.0 1.6 0.00 0.00 0.00 61 1015.6
20260502192022 18 261 1.6 6.4 0.00 0.00 0.00 61 1015.6
20260502191024 18 168 1.6 8.0 0.00 0.00 0.00 61 1015.6
20260502190024 19 154 3.2 6.4 0.00 0.00 0.00 60 1015.5
20260502185046 19 109 1.6 3.2 0.00 0.00 0.00 59 1015.3
20260502184027 20 70 3.2 6.4 0.00 0.00 0.00 56 1015.3
20260502183024 20 54 0.0 0.0 0.00 0.00 0.00 54 1015.1
20260502182020 21 54 0.0 1.6 0.00 0.00 0.00 52 1015.3
20260502181039 21 54 0.0 1.6 0.00 0.00 0.00 53 1015.2
20260502164022 25 53 3.2 6.4 0.00 0.00 0.00 41 1015.4
20260502163014 25 59 1.6 3.2 0.00 0.00 0.00 39 1015.5
20260502162030 25 59 1.6 6.4 0.00 0.00 0.00 39 1015.5
20260502161014 25 165 0.0 4.8 0.00 0.00 0.00 39 1015.7
20260502152054 25 11 3.2 8.0 0.00 0.00 0.00 40 1016.1
20260502151054 25 51 3.2 9.7 0.00 0.00 0.00 41 1016.2
20260502123042 24 96 4.8 14.5 0.00 0.00 0.00 44 1018.5
20260502122053 24 156 3.2 8.0 0.00 0.00 0.00 44 1018.6
20260502121052 23 82 1.6 12.9 0.00 0.00 0.00 44 1018.9
20260502115023 23 36 1.6 3.2 0.00 0.00 0.00 46 1019.0
20260502114022 23 36 3.2 11.3 0.00 0.00 0.00 46 1019.2
20260502113023 23 69 4.8 8.0 0.00 0.00 0.00 48 1019.4
20260502112018 23 346 3.2 9.7 0.00 0.00 0.00 51 1019.5
20260502111029 23 94 1.6 9.7 0.00 0.00 0.00 50 1019.7
20260502110025 22 63 1.6 9.7 0.00 0.00 0.00 51 1019.9
20260502105022 22 50 1.6 6.4 0.00 0.00 0.00 54 1020.0
20260502104022 22 94 4.8 12.9 0.00 0.00 0.00 53 1020.2
20260502103016 22 146 0.0 8.0 0.00 0.00 0.00 55 1020.3
20260502102031 21 61 1.6 9.7 0.00 0.00 0.00 56 1020.5
20260502101031 21 56 3.2 8.0 0.00 0.00 0.00 56 1020.6
20260502091037 20 52 6.4 9.7 0.00 0.00 0.00 57 1021.3
20260502071019 13 177 0.0 1.6 0.00 0.00 0.00 77 1021.7
20260502070019 12 177 0.0 3.2 0.00 0.00 0.00 81 1021.8
20260502065036 11 178 0.0 0.0 0.00 0.00 0.00 80 1021.9
20260502064018 11 178 0.0 1.6 0.00 0.00 0.00 81 1021.8
20260502063028 10 180 0.0 0.0 0.00 0.00 0.00 83 1021.8
20260502062046 10 180 0.0 0.0 0.00 0.00 0.00 84 1021.8
20260502061028 9 180 0.0 1.6 0.00 0.00 0.00 85 1021.9
20260502060045 8 180 0.0 0.0 0.00 0.00 0.00 85 1021.9
20260502055055 8 180 0.0 0.0 0.00 0.00 0.00 85 1021.8
20260502054055 8 180 0.0 0.0 0.00 0.00 0.00 85 1021.9
20260502053035 8 180 0.0 0.0 0.00 0.00 0.00 85 1021.9
20260502052017 7 180 0.0 0.0 0.00 0.00 0.00 85 1021.8
20260502051042 7 180 0.0 0.0 0.00 0.00 0.00 85 1021.8
20260502050043 7 180 0.0 1.6 0.00 0.00 0.00 85 1021.7
20260502045032 7 180 0.0 0.0 0.00 0.00 0.00 85 1021.8
20260502044034 7 180 0.0 3.2 0.00 0.00 0.00 84 1021.8
20260502043025 7 180 0.0 0.0 0.00 0.00 0.00 83 1021.8
20260502042026 7 180 0.0 0.0 0.00 0.00 0.00 83 1021.8
20260502041028 7 180 0.0 0.0 0.00 0.00 0.00 83 1021.8
20260502040046 7 180 0.0 4.8 0.00 0.00 0.00 83 1021.8
20260502035028 7 180 0.0 3.2 0.00 0.00 0.00 83 1021.7
20260502034028 8 180 0.0 0.0 0.00 0.00 0.00 82 1021.6
20260502033023 8 180 0.0 0.0 0.00 0.00 0.00 82 1021.6
20260502032019 8 180 0.0 1.6 0.00 0.00 0.00 81 1021.7
20260502031016 8 180 0.0 6.4 0.00 0.00 0.00 82 1021.7
20260502030034 8 178 0.0 1.6 0.00 0.00 0.00 82 1021.6
20260502025023 8 178 3.2 4.8 0.00 0.00 0.00 82 1021.6
20260502024023 8 178 3.2 6.4 0.00 0.00 0.00 83 1021.7
20260502023020 8 178 1.6 6.4 0.00 0.00 0.00 82 1021.7